SCP
0 0 0 0 0 0 0 0 0 0 0 0 0 0 0 0 0 0 0 0 0 0 0 0 0 0 0 0 0 0 0 0 0 0 0 0 0 0 0 0 0 0 0 0 0 0 0 0 0 0 0 0 0 -0
0 0 0 0 0 0 0 0 0 0 0 0 0 0 0 0 0 0 0 0 0 0 0 0 0 0 0 0 0 0 0 0 0 0 0 0 0 0 0 0 0 0 0 0 0 0 0 0 0 0 0 0 0 0
0 0 0 0 0 0 0 0 0 0 0 0 0 0 0 0 0 0 0 0 0 0 0 0 0 0 0 0 0 0 0 0 0 0 0 0 0 0 0 0 0 0 0 0 0 0 0 0 0 0 0 0 -0 -0
0 0 0 0 0 0 0 0 0 0 0 0 0 0 0 0 0 0 0 0 0 0 0 0 -0 0 0 0 0 0 0 0 0 0 0 0 0 0 0 0 0 0 0 0 0 0 0 0 0 0 0 0 0 0
0 0 0 0 0 0 0 0 0 0 0 0 0 0 0 0 0 0 0 0 0 0 0 0 -0 0 0 0 0 0 0 0 0 0 0 0 0 0 0 0 0 0 0 0 -0 0 -0 -0 -0 -0 -0 -0 -0 -0
0 0 0 0 0 0 0 0 0 0 0 0 0 0 0 0 0 0 0 0 0 0 0 0 0 -0 -0 0 0 0 0 0 0 0 0 0 0 0 0 0 0 0 0 0 -0 -0 -0 -0 -0 -0 -0 0 -0 -0
0 0 0 0 0 0 0 0 0 0 0 0 0 0 -0 0 0 0 0 0 0 0 0 0 0 -0 0 0 0 0 0 0 0 0 0 0 0 0 0 0 0 0 0 0 -0 -0 -0 -0 -0 -0 -0 0 0 0
0 0 0 0 0 0 0 0 0 0 0 0 0 0 0 0 0 0 0 0 0 0 0 0 0 -0 0 0 0 -0 0 0 0 0 0 0 0 0 0 0 0 0 0 0 0 0 -0 -0 0 0 0 0 -0 -0
0 0 0 0 0 0 0 0 0 0 0 0 0 -0 0 0 0 0 0 0 0 0 0 0 0 0 0 -0 0 0 0 0 0 0 0 0 0 0 0 -0 0 -0 0 0 -0 0 0 0 0 -0 0 -0 -0 -0
0 0 0 0 0 0 0 0 0 0 -0 -0 0 0 0 0 0 0 0 0 0 0 0 0 0 -0 -0 -0 0 0 0 0 0 0 0 0 0 0 -0 -0 -0 -0 0 0 0 -0 -0 0 0 -0 -0 -0 -0 -0
0 0 0 0 0 0 0 0 0 0 0 0 0 0 0 0 -0 0 0 0 0 0 0 0 -0 -0 -0 -0 0 -0 -0 -0 -0 -0 -0 0 0 0 -0 -0 -0 0 -0 0 0 0 0 0 -0 -0 -0 -0 -0 -0
0 0 0 0 0 0 0 0 0 0 0 0 0 0 0 0 0 0 0 0 0 0 -0 0 0 0 0 -0 -0 -0 -0 -0 -0 -0 0 -0 -0 -0 -0 -0 -0 -0 -0 -0 -0 -0 0 0 -0 -0 -0 -0 -0 0
0 0 0 0 0 0 0 0 0 0 -0 0 0 0 0 0 0 0 0 0 0 -0 -0 -0 -0 -0 -0 -0 -0 -0 -0 -0 0 -0 -0 -0 -0 0 -0 -0 -0 -0 -0 -0 -0 0 0 0 -0 0 -0 -0 -0 -0
0 0 -0 -0 -0 -0 -0 -0 -0 -0 0 0 0 0 0 0 0 -0 -0 0 0 0 -0 -0 -0 0 -0 -0 -0 -0 -0 -0 0 -0 -0 -0 0 -0 0 -0 -0 -0 -0 -0 -0 0 0 -0 -0 0 -0 -0 0 0
0 -0 -0 -0 -0 -0 -0 -0 -0 0 0 0 0 0 0 -0 0 0 0 0 0 -0 -0 0 0 -0 0 -0 -0 -0 -0 -0 -0 -0 -0 0 -0 -0 -0 -0 -0 -0 -0 -0 -0 0 0 -0 -0 0 -0 -0 0 -0
-0 -0 -0 0 0 -0 -0 -0 0 0 0 0 0 0 0 0 0 0 0 0 0 0 -0 -0 -0 -0 -0 -0 -0 0 -0 -0 -0 -0 0 -0 -0 -0 -0 -0 -0 -0 0 -0 -0 0 0 -0 -0 -0 -0 -0 0 0
-0 0 0 0 0 0 0 0 0 0 0 0 0 -0 -0 0 0 0 0 -0 0 0 0 0 0 0 -0 -0 -0 -0 0 -0 -0 -0 0 -0 -0 -0 0 -0 0 0 -0 0 0 -0 0 0 0 0 0 0 0 -0
-0 -0 0 0 0 0 0 0 0 0 0 0 0 -0 0 0 0 0 0 0 0 0 0 0 0 0 0 0 0 -0 -0 -0 0 0 0 0 0 0 0 0 0 0 0 0 0 -0 -0 -0 -0 -0 -0 -0 -0 0
-0 0 0 0 0 0 0 0 0 0 0 0 0 0 -0 -0 -0 0 0 0 0 0 0 0 0 0 0 0 0 0 -0 0 0 0 -0 0 0 0 0 0 0 0 0 -0 -0 -0 -0 -0 -0 -0 -0 -0 -0 -0
0 0 0 0 0 0 0 0 0 0 0 -0 0 -0 -0 -0 -0 -0 -0 0 0 0 0 0 0 0 0 0 -0 -0 -0 -0 -0 -0 -0 0 0 0 0 0 0 0 0 0 -0 0 -0 -0 -0 -0 -0 -0 -0 -0
-0 0 0 0 0 0 0 0 0 0 0 -0 0 0 0 -0 -0 -0 -0 -0 -0 -0 -0 -0 -0 0 0 0 0 -0 -0 -0 -0 -0 0 0 0 0 0 0 0 0 0 -0 -0 -0 -0 -0 -0 -0 -0 -0 -0 -0
0 0 0 0 0 0 0 0 -0 -0 -0 -0 0 -0 0 0 -0 -0 -0 -0 -0 -0 -0 -0 -0 0 0 -0 -0 -0 -0 -0 -0 0 0 0 0 0 0 0 0 0 -0 -0 -0 -0 -0 -0 -0 -0 -0 -0 -0 -0
0 0 0 0 0 -0 -0 0 -0 -0 -0 0 0 0 0 -0 -0 -0 -0 -0 -0 -0 -0 -0 0 0 0 0 0 0 -0 -0 0 0 0 0 0 0 0 0 0 -0 -0 0 0 -0 -0 0 0 -0 -0 -0 -0 -0
0 -0 0 -0 -0 -0 -0 -0 0 0 0 0 0 0 -0 -0 0 -0 -0 -0 -0 0 0 0 -0 0 0 0 0 0 0 0 0 0 0 0 0 0 0 0 0 -0 0 0 0 0 -0 -0 0 -0 -0 -0 -0 -0
-0 -0 -0 -0 -0 -0 0 -0 0 0 0 -0 -0 0 0 0 0 -0 0 0 0 0 0 0 0 0 0 0 0 0 0 0 0 0 0 0 0 0 0 0 -0 -0 0 0 0 0 0 0 -0 0 0 0 -0 -0
0 0 -0 -0 -0 0 0 0 0 -0 0 0 0 0 0 0 0 0 0 0 0 0 0 0 0 0 0 0 0 0 0 0 0 0 0 0 0 0 0 -0 -0 -0 0 -0 0 0 0 0 0 0 0 0 0 0
0 -0 -0 0 0 0 0 0 -0 -0 -0 0 0 0 0 0 0 0 0 0 0 0 0 0 0 -0 0 0 0 0 0 0 0 0 0 0 0 0 0 -0 0 0 -0 -0 -0 -0 -0 -0 -0 -0 -0 0 0 0
-0 0 0 0 0 0 0 0 0 0 0 0 0 0 0 0 0 0 0 0 0 0 0 0 0 0 0 0 0 0 -0 0 0 0 0 0 0 0 0 0 -0 -0 -0 0 -0 -0 -0 -0 -0 -0 -0 -0 -0 -0
0 0 0 -0 -0 -0 0 0 0 0 0 0 0 0 0 0 0 0 0 0 0 0 0 0 0 0 0 0 -0 0 -0 0 0 0 0 0 -0 -0 -0 -0 0 0 0 0 -0 -0 0 -0 -0 -0 0 0 0 0
0 0 -0 -0 0 -0 -0 0 0 0 0 -0 -0 -0 0 0 0 0 0 0 0 0 0 0 0 0 0 -0 0 0 0 0 0 0 0 0 0 0 -0 -0 -0 0 0 0 0 0 0 0 0 0 -0 0 0 0
0 0 0 0 0 0 0 0 0 0 0 -0 -0 0 0 0 0 0 0 0 0 0 0 0 0 0 0 0 0 0 0 0 0 0 0 0 0 0 0 -0 -0 -0 0 0 0 0 0 0 0 0 0 0 0 0
0 0 0 0 0 0 0 0 0 0 0 0 0 0 0 0 0 0 0 0 0 0 0 0 0 0 0 0 0 0 0 0 0 0 0 0 0 0 -0 0 0 0 0 0 0 0 0 0 -0 0 -0 -0 -0 0
0 0 0 0 0 0 0 0 0 0 0 0 0 0 0 0 0 0 0 0 0 0 0 0 0 0 0 0 0 0 0 0 0 0 0 0 0 0 0 0 0 0 0 0 0 0 0 0 0 0 0 0 0 0
Wind_Speed_500mb
40 40 41 41 41 41 41 41 41 41 40 39 38 37 35 33 30 27 31 25 33 44 64 59 63 65 59 53 32 45 34 32 23 22 24 26 24 26 24 28 26 30 17 20 14 11 19 10 28 8 25 47 43 45
39 39 39 39 39 38 38 37 38 38 38 37 37 37 35 33 31 29 36 25 30 49 61 65 75 76 77 69 63 56 47 54 14 9 13 8 18 16 29 31 32 31 28 23 27 26 37 66 52 58 53 61 66 53
37 36 36 36 35 34 35 36 36 38 37 38 38 38 37 34 30 31 37 37 37 50 66 65 62 48 56 66 62 66 57 58 50 45 32 19 28 18 25 27 38 39 44 29 39 43 40 61 63 55 66 66 68 63
36 36 34 32 31 33 38 36 37 38 39 39 39 40 37 34 37 40 41 37 38 42 30 52 36 37 35 38 40 59 73 51 47 36 33 15 13 18 26 35 33 37 44 39 44 45 58 59 69 66 65 70 67 55
35 34 35 31 32 33 39 38 40 40 40 39 38 39 38 37 42 43 49 52 40 41 40 61 83 81 63 59 67 67 64 52 50 32 11 9 11 15 27 31 32 42 31 25 33 60 55 63 69 80 71 55 57 58
32 32 31 30 32 35 37 39 39 37 37 38 41 40 39 37 34 38 18 12 31 9 18 11 28 71 65 52 49 46 45 62 63 40 19 27 45 19 12 22 35 46 54 62 50 61 63 65 56 59 59 65 64 46
34 36 37 35 34 37 42 41 35 37 41 42 42 43 42 40 34 30 20 12 15 40 15 15 20 29 37 33 39 50 56 65 57 43 31 19 19 16 6 31 47 63 43 54 61 61 46 44 70 79 55 46 44 51
34 32 32 32 32 32 32 34 38 38 38 42 46 47 45 43 47 55 55 40 25 28 18 10 21 41 22 24 16 29 12 19 22 18 15 15 22 15 10 26 43 49 48 49 39 44 54 55 43 35 39 45 50 52
30 30 31 33 30 28 33 36 35 38 43 44 44 48 46 28 19 26 30 34 29 34 14 13 21 26 10 11 25 39 24 13 18 14 17 13 8 10 8 32 42 35 27 39 47 47 33 37 39 41 45 49 56 61
31 28 27 27 29 34 37 35 38 41 38 37 41 16 10 7 19 26 17 14 19 25 19 16 38 31 52 52 34 21 17 9 6 13 16 7 7 3 15 32 31 24 20 33 32 35 35 36 38 44 48 49 49 50
38 37 36 38 38 36 34 34 34 33 31 24 9 11 25 31 36 16 12 14 16 9 17 24 47 34 44 18 15 9 7 7 7 4 9 4 4 6 21 22 19 8 16 11 18 21 23 26 35 40 47 48 46 46
32 33 34 36 33 32 31 28 29 26 21 29 34 46 29 10 14 12 9 12 14 6 5 13 16 12 13 11 7 7 6 7 6 9 4 3 2 35 31 21 15 22 20 13 15 18 22 26 29 34 43 51 49 43
35 37 35 32 28 27 28 29 27 28 31 23 11 9 9 11 9 11 14 12 6 13 12 25 17 11 10 7 8 6 4 8 24 4 3 6 37 46 28 12 18 20 17 17 15 18 19 22 28 35 41 48 57 55
32 29 28 28 28 28 25 21 18 16 10 10 11 8 9 12 12 6 11 9 12 18 20 18 18 13 11 3 4 5 2 5 6 3 9 16 49 36 9 17 20 16 18 18 15 18 18 22 29 35 39 40 49 58
28 28 30 32 29 24 20 19 20 16 10 11 12 8 14 28 30 14 12 23 14 22 14 20 22 17 13 6 3 5 3 7 6 7 12 39 46 33 11 18 19 20 19 19 15 21 19 21 26 33 41 45 42 47
26 33 29 19 19 23 22 22 22 20 10 11 14 20 36 30 30 15 19 13 21 18 17 18 13 6 6 4 4 6 15 8 5 9 33 44 42 29 18 17 19 20 19 15 10 14 16 25 27 32 39 45 46 46
24 26 17 20 20 18 19 16 16 15 14 12 17 35 37 43 38 39 19 25 16 19 10 9 9 9 8 3 1 5 5 8 17 21 40 36 35 34 23 23 22 21 19 17 12 7 4 3 14 22 31 36 42 45
30 26 31 22 16 16 20 20 12 12 15 26 34 47 48 47 37 43 37 32 27 23 15 10 15 16 11 13 10 7 13 9 17 22 48 32 34 21 18 17 21 19 15 14 16 19 20 15 17 18 19 26 36 40
27 29 25 25 21 14 8 10 17 12 26 37 44 44 45 47 43 40 38 36 32 27 24 15 9 13 15 5 20 23 23 28 27 20 34 25 26 20 17 17 15 15 15 15 18 20 21 23 24 25 24 24 30 32
32 29 28 19 16 9 9 13 14 15 19 37 42 43 41 47 40 40 36 35 31 27 20 18 21 38 43 34 22 22 26 27 28 27 26 32 22 18 15 19 12 8 4 9 17 15 21 23 24 26 27 32 33 32
28 27 25 25 27 25 12 13 14 19 24 36 42 36 27 33 33 35 37 40 41 39 28 39 42 42 40 40 36 31 30 25 21 22 19 25 23 22 19 9 7 10 12 16 19 21 23 25 26 26 26 28 27 27
27 20 16 31 22 14 19 25 22 28 29 34 49 49 36 32 37 41 38 42 44 47 50 49 47 46 44 39 34 31 29 24 23 23 20 19 17 14 17 4 4 8 15 16 17 18 18 21 23 23 24 31 34 33
23 17 12 12 11 12 17 27 43 35 11 19 33 25 23 35 47 45 38 50 51 50 51 52 48 44 42 38 33 33 28 27 28 23 16 16 15 15 13 4 0 8 14 15 14 18 18 20 21 24 25 27 28 30
19 8 9 11 20 12 20 20 15 11 10 11 9 19 29 40 41 35 20 41 48 47 45 43 41 45 42 39 40 39 33 29 29 24 19 14 14 15 9 4 4 11 13 12 13 14 15 16 19 22 23 25 27 29
8 12 12 14 14 11 11 22 20 8 11 17 11 13 11 13 9 20 24 36 48 49 44 42 39 39 38 33 31 31 29 29 25 26 22 21 16 13 11 6 6 10 10 11 12 12 13 14 17 20 22 24 25 27
13 14 16 14 14 14 8 6 8 12 11 10 13 11 7 5 7 9 8 17 32 32 32 35 34 37 38 36 31 26 26 29 26 25 25 24 22 21 16 12 12 10 9 9 11 12 13 13 14 19 25 24 24 23
10 13 27 39 21 13 10 19 31 16 9 8 6 6 6 8 11 8 4 3 11 19 21 23 32 27 30 31 28 23 26 28 30 26 20 24 23 24 23 17 17 14 13 12 12 12 13 14 14 14 15 16 17 18
26 13 15 19 17 23 11 11 9 7 8 11 7 5 4 4 5 14 20 35 19 8 11 11 20 22 25 29 25 26 29 26 25 22 16 21 23 24 22 19 12 22 17 16 14 14 13 14 14 13 12 13 13 13
24 20 22 27 25 15 15 11 12 16 17 11 6 2 6 14 29 37 41 28 30 15 4 23 25 19 27 23 24 27 24 24 31 31 30 32 31 31 26 18 19 19 24 20 21 16 18 17 16 14 12 12 12 12
41 32 16 10 9 14 19 28 20 15 13 7 8 11 14 14 28 29 24 22 27 20 14 14 13 16 19 20 19 21 25 23 25 21 25 23 26 29 28 27 25 20 25 21 22 18 17 14 16 12 10 10 9 8
25 15 12 13 9 20 29 29 31 26 29 23 16 12 10 11 14 45 37 32 25 15 25 20 24 16 12 14 17 27 33 21 19 7 14 21 24 27 30 28 25 22 25 26 23 22 18 20 17 17 16 15 14 14
21 13 8 5 3 5 8 13 16 9 7 6 6 5 2 7 14 25 41 37 31 28 26 22 23 24 18 15 18 14 18 21 21 10 3 11 8 17 17 28 27 23 28 27 25 22 27 22 17 21 20 19 18 20
21 18 9 5 2 2 9 11 8 8 11 8 9 15 11 8 10 21 32 35 34 29 30 30 30 31 28 26 24 29 31 32 31 27 24 24 14 8 13 18 15 14 23 22 25 14 17 19 21 14 24 21 20 19
Wind_Direction_500mb
295 296 297 298 299 300 301 303 304 306 307 307 307 307 307 307 306 303 288 283 274 274 278 275 278 281 280 271 270 288 317 291 250 250 258 272 271 274 279 286 310 302 304 286 261 269 269 36 305 283 261 273 294 290
293 294 295 297 298 298 300 303 304 305 305 305 305 304 305 307 309 305 295 297 284 269 270 279 275 269 265 267 281 285 273 283 302 320 323 7 319 311 297 286 289 276 275 297 281 287 312 309 301 312 319 315 316 328
291 293 294 296 296 297 301 303 304 305 305 305 306 305 305 303 303 297 291 292 294 284 288 272 271 275 274 252 247 247 258 256 271 267 291 292 265 290 283 283 302 306 304 304 314 303 302 306 309 326 324 320 305 313
292 292 294 294 298 299 300 304 303 305 303 304 305 304 303 304 301 295 290 281 271 275 282 288 281 272 288 264 268 243 241 250 263 265 258 251 268 274 271 287 292 293 296 290 290 297 312 315 317 318 312 319 312 317
296 296 292 289 290 291 297 299 301 302 304 307 306 304 302 301 305 305 290 277 258 247 282 293 295 292 285 275 251 252 254 239 243 240 234 241 247 259 261 267 266 275 291 297 297 308 304 301 309 310 309 310 303 318
291 294 297 296 294 292 294 298 301 300 304 304 304 301 304 305 305 319 314 27 184 303 267 281 287 283 279 271 258 259 237 228 227 226 229 240 237 232 267 266 269 284 298 303 305 308 307 307 312 325 319 312 306 311
288 286 285 284 284 285 289 297 298 300 299 300 300 300 298 296 286 266 253 274 329 328 295 288 283 284 321 259 252 241 233 225 228 244 230 230 226 224 261 265 289 297 307 300 298 306 306 306 310 310 311 304 314 312
288 289 290 290 291 292 294 295 295 298 299 300 301 302 299 291 281 272 276 293 292 267 266 261 279 286 301 320 303 276 207 226 217 215 202 211 233 205 255 281 315 313 310 305 316 316 302 308 318 329 330 326 323 320
289 287 286 290 292 294 298 300 297 298 301 303 307 302 296 275 254 274 262 258 246 219 262 276 267 290 205 297 278 312 308 284 238 208 233 229 204 228 265 325 314 309 303 304 313 317 338 340 339 333 331 331 329 327
291 294 292 290 290 288 295 298 299 299 300 310 308 283 258 213 352 317 268 224 206 206 231 249 250 261 282 300 307 332 286 230 254 241 222 161 220 158 290 311 302 296 326 328 324 340 346 337 336 338 337 334 333 331
276 279 283 286 289 290 287 291 297 304 314 309 286 275 315 306 302 250 244 211 180 213 219 249 243 256 269 283 283 248 286 277 266 43 350 38 167 338 307 309 316 309 299 312 353 348 348 343 343 347 353 353 350 345
285 282 280 286 286 285 284 288 297 303 291 288 296 301 299 276 236 246 242 234 199 286 325 345 312 276 271 236 253 252 270 285 284 358 207 180 238 355 336 322 286 281 285 44 12 359 2 8 14 17 17 16 15 13
281 282 280 278 278 280 281 286 291 295 306 300 250 241 232 244 238 234 234 220 350 335 311 321 302 260 231 265 246 259 271 259 332 267 133 44 353 340 339 307 299 309 100 58 24 14 21 25 19 17 19 24 31 33
281 279 276 275 276 282 284 283 287 299 301 253 240 240 246 219 231 346 335 324 246 247 280 308 327 300 272 226 262 243 279 324 260 344 31 348 344 352 350 327 316 20 78 58 35 17 17 15 20 24 26 26 32 36
278 277 273 272 276 276 270 270 273 266 255 267 262 243 236 264 295 261 304 295 318 272 293 318 298 252 283 261 279 289 276 251 43 29 360 349 341 344 341 344 9 20 44 51 25 18 20 22 29 34 34 33 37 41
278 279 287 292 274 253 261 264 260 241 240 248 249 265 286 293 292 340 321 296 308 314 324 291 272 257 249 272 305 324 319 33 2 24 4 351 352 349 354 26 24 24 27 43 57 18 20 28 27 27 25 30 34 38
268 267 276 288 266 258 258 245 254 221 220 234 246 253 272 286 289 299 287 292 300 302 311 311 287 9 275 42 50 198 292 311 18 21 7 350 344 348 17 15 21 22 20 29 24 356 332 360 48 21 19 20 29 36
262 270 276 279 256 254 248 229 241 240 237 249 264 272 278 277 274 285 287 289 291 287 295 294 314 292 293 318 327 73 49 353 60 37 10 356 4 13 16 9 4 18 23 18 30 32 36 36 33 25 34 28 29 31
263 270 293 309 209 237 248 235 220 255 243 259 263 266 266 268 269 270 271 273 274 276 272 263 251 259 252 334 2 340 0 7 15 23 10 354 351 2 1 343 2 30 40 49 46 50 49 49 45 41 40 36 39 33
260 262 268 271 231 238 246 252 229 255 268 276 277 271 263 259 259 261 260 263 261 263 264 247 253 263 281 295 295 321 347 343 342 349 351 334 341 339 340 336 16 333 57 72 45 35 56 56 51 48 52 54 53 50
266 264 257 244 236 232 255 255 247 253 279 277 274 274 277 260 255 250 253 253 247 251 255 250 253 262 266 273 286 304 310 307 316 312 307 311 314 313 311 292 358 20 53 63 64 65 60 59 57 59 61 57 54 52
257 263 248 224 221 233 237 235 250 270 272 270 279 277 268 260 256 252 255 251 252 245 247 252 254 259 261 261 266 272 279 290 295 291 293 303 304 307 311 299 336 68 58 61 65 66 69 70 66 63 63 62 61 62
262 218 232 232 237 238 256 246 243 246 242 267 282 279 271 267 264 262 258 254 252 251 250 250 251 250 256 264 270 269 265 268 271 272 265 278 266 279 294 196 327 80 82 79 80 88 79 72 67 69 69 67 66 62
222 251 229 230 214 254 252 243 237 246 276 281 283 279 276 276 271 260 258 256 253 254 249 248 245 246 248 246 248 251 252 246 244 242 247 227 235 248 257 234 160 94 93 99 99 95 89 78 76 72 72 72 70 68
238 236 221 245 243 237 255 261 231 238 240 232 239 256 272 291 268 245 241 245 247 245 245 243 239 233 234 240 239 235 228 226 217 216 217 207 224 238 225 214 174 122 131 115 116 107 104 93 86 84 82 78 75 73
227 229 207 224 232 228 236 257 239 230 252 232 224 232 262 252 247 261 262 254 236 245 231 213 223 226 222 223 227 222 203 199 203 198 199 200 207 219 211 196 187 156 164 142 136 127 121 111 101 97 90 82 84 80
246 253 234 231 246 285 272 257 268 275 265 259 235 196 230 233 227 227 218 165 241 231 230 238 209 195 202 200 203 195 183 185 194 186 186 193 201 206 201 197 216 177 172 161 154 147 139 135 124 116 104 92 85 83
233 257 228 230 230 227 249 261 264 267 250 234 252 249 234 263 327 336 17 9 9 299 291 137 155 161 175 177 182 176 176 183 193 191 203 190 192 202 203 202 233 176 172 173 166 163 156 151 142 131 117 109 102 94
235 242 254 243 235 227 231 230 238 234 253 295 295 29 351 337 6 359 354 14 24 14 185 120 136 158 148 160 173 177 173 193 194 193 195 189 185 193 194 209 194 176 181 178 175 166 173 168 159 149 136 122 116 109
266 265 252 231 210 217 223 206 247 257 264 322 342 343 339 6 4 16 29 50 25 46 69 113 126 153 150 163 174 171 191 198 191 190 208 199 198 209 212 183 184 184 183 182 184 193 181 170 171 173 177 165 152 147
276 269 236 221 232 241 237 229 224 243 253 272 278 282 302 316 346 37 54 59 43 76 63 76 95 108 129 107 89 99 89 111 117 139 214 209 195 201 193 191 198 195 190 189 187 191 193 194 202 206 207 208 210 217
282 236 238 245 261 350 126 129 137 121 123 112 89 118 67 37 28 35 56 67 63 57 55 63 60 63 91 79 79 109 90 99 86 108 127 197 195 212 202 197 192 198 203 197 196 193 186 201 230 233 234 239 244 234
299 305 326 318 165 131 111 104 88 86 69 72 73 75 57 60 41 9 48 56 60 62 69 74 75 77 82 98 96 82 80 86 96 103 96 103 126 145 145 153 175 190 177 187 194 217 201 224 239 257 242 251 272 277
Wind_Speed_850mb
40 40 41 41 41 41 41 41 41 41 40 39 38 37 35 33 30 27 31 25 33 44 64 59 63 65 59 53 32 45 34 32 23 22 24 26 24 26 24 28 26 30 17 20 14 11 19 10 28 8 25 47 43 45
39 39 39 39 39 38 38 37 38 38 38 37 37 37 35 33 31 29 36 25 30 49 61 65 75 76 77 69 63 56 47 54 14 9 13 8 18 16 29 31 32 31 28 23 27 26 37 66 52 58 53 61 66 53
37 36 36 36 35 34 35 36 36 38 37 38 38 38 37 34 30 31 37 37 37 50 66 65 62 48 56 66 62 66 57 58 50 45 32 19 28 18 25 27 38 39 44 29 39 43 40 61 63 55 66 66 68 63
36 36 34 32 31 33 38 36 37 38 39 39 39 40 37 34 37 40 41 37 38 42 30 52 36 37 35 38 40 59 73 51 47 36 33 15 13 18 26 35 33 37 44 39 44 45 58 59 69 66 65 70 67 55
35 34 35 31 32 33 39 38 40 40 40 39 38 39 38 37 42 43 49 52 40 41 40 61 83 81 63 59 67 67 64 52 50 32 11 9 11 15 27 31 32 42 31 25 33 60 55 63 69 80 71 55 57 58
32 32 31 30 32 35 37 39 39 37 37 38 41 40 39 37 34 38 18 12 31 9 18 11 28 71 65 52 49 46 45 62 63 40 19 27 45 19 12 22 35 46 54 62 50 61 63 65 56 59 59 65 64 46
34 36 37 35 34 37 42 41 35 37 41 42 42 43 42 40 34 30 20 12 15 40 15 15 20 29 37 33 39 50 56 65 57 43 31 19 19 16 6 31 47 63 43 54 61 61 46 44 70 79 55 46 44 51
34 32 32 32 32 32 32 34 38 38 38 42 46 47 45 43 47 55 55 40 25 28 18 10 21 41 22 24 16 29 12 19 22 18 15 15 22 15 10 26 43 49 48 49 39 44 54 55 43 35 39 45 50 52
30 30 31 33 30 28 33 36 35 38 43 44 44 48 46 28 19 26 30 34 29 34 14 13 21 26 10 11 25 39 24 13 18 14 17 13 8 10 8 32 42 35 27 39 47 47 33 37 39 41 45 49 56 61
31 28 27 27 29 34 37 35 38 41 38 37 41 16 10 7 19 26 17 14 19 25 19 16 38 31 52 52 34 21 17 9 6 13 16 7 7 3 15 32 31 24 20 33 32 35 35 36 38 44 48 49 49 50
38 37 36 38 38 36 34 34 34 33 31 24 9 11 25 31 36 16 12 14 16 9 17 24 47 34 44 18 15 9 7 7 7 4 9 4 4 6 21 22 19 8 16 11 18 21 23 26 35 40 47 48 46 46
32 33 34 36 33 32 31 28 29 26 21 29 34 46 29 10 14 12 9 12 14 6 5 13 16 12 13 11 7 7 6 7 6 9 4 3 2 35 31 21 15 22 20 13 15 18 22 26 29 34 43 51 49 43
35 37 35 32 28 27 28 29 27 28 31 23 11 9 9 11 9 11 14 12 6 13 12 25 17 11 10 7 8 6 4 8 24 4 3 6 37 46 28 12 18 20 17 17 15 18 19 22 28 35 41 48 57 55
32 29 28 28 28 28 25 21 18 16 10 10 11 8 9 12 12 6 11 9 12 18 20 18 18 13 11 3 4 5 2 5 6 3 9 16 49 36 9 17 20 16 18 18 15 18 18 22 29 35 39 40 49 58
28 28 30 32 29 24 20 19 20 16 10 11 12 8 14 28 30 14 12 23 14 22 14 20 22 17 13 6 3 5 3 7 6 7 12 39 46 33 11 18 19 20 19 19 15 21 19 21 26 33 41 45 42 47
26 33 29 19 19 23 22 22 22 20 10 11 14 20 36 30 30 15 19 13 21 18 17 18 13 6 6 4 4 6 15 8 5 9 33 44 42 29 18 17 19 20 19 15 10 14 16 25 27 32 39 45 46 46
24 26 17 20 20 18 19 16 16 15 14 12 17 35 37 43 38 39 19 25 16 19 10 9 9 9 8 3 1 5 5 8 17 21 40 36 35 34 23 23 22 21 19 17 12 7 4 3 14 22 31 36 42 45
30 26 31 22 16 16 20 20 12 12 15 26 34 47 48 47 37 43 37 32 27 23 15 10 15 16 11 13 10 7 13 9 17 22 48 32 34 21 18 17 21 19 15 14 16 19 20 15 17 18 19 26 36 40
27 29 25 25 21 14 8 10 17 12 26 37 44 44 45 47 43 40 38 36 32 27 24 15 9 13 15 5 20 23 23 28 27 20 34 25 26 20 17 17 15 15 15 15 18 20 21 23 24 25 24 24 30 32
32 29 28 19 16 9 9 13 14 15 19 37 42 43 41 47 40 40 36 35 31 27 20 18 21 38 43 34 22 22 26 27 28 27 26 32 22 18 15 19 12 8 4 9 17 15 21 23 24 26 27 32 33 32
28 27 25 25 27 25 12 13 14 19 24 36 42 36 27 33 33 35 37 40 41 39 28 39 42 42 40 40 36 31 30 25 21 22 19 25 23 22 19 9 7 10 12 16 19 21 23 25 26 26 26 28 27 27
27 20 16 31 22 14 19 25 22 28 29 34 49 49 36 32 37 41 38 42 44 47 50 49 47 46 44 39 34 31 29 24 23 23 20 19 17 14 17 4 4 8 15 16 17 18 18 21 23 23 24 31 34 33
23 17 12 12 11 12 17 27 43 35 11 19 33 25 23 35 47 45 38 50 51 50 51 52 48 44 42 38 33 33 28 27 28 23 16 16 15 15 13 4 0 8 14 15 14 18 18 20 21 24 25 27 28 30
19 8 9 11 20 12 20 20 15 11 10 11 9 19 29 40 41 35 20 41 48 47 45 43 41 45 42 39 40 39 33 29 29 24 19 14 14 15 9 4 4 11 13 12 13 14 15 16 19 22 23 25 27 29
8 12 12 14 14 11 11 22 20 8 11 17 11 13 11 13 9 20 24 36 48 49 44 42 39 39 38 33 31 31 29 29 25 26 22 21 16 13 11 6 6 10 10 11 12 12 13 14 17 20 22 24 25 27
13 14 16 14 14 14 8 6 8 12 11 10 13 11 7 5 7 9 8 17 32 32 32 35 34 37 38 36 31 26 26 29 26 25 25 24 22 21 16 12 12 10 9 9 11 12 13 13 14 19 25 24 24 23
10 13 27 39 21 13 10 19 31 16 9 8 6 6 6 8 11 8 4 3 11 19 21 23 32 27 30 31 28 23 26 28 30 26 20 24 23 24 23 17 17 14 13 12 12 12 13 14 14 14 15 16 17 18
26 13 15 19 17 23 11 11 9 7 8 11 7 5 4 4 5 14 20 35 19 8 11 11 20 22 25 29 25 26 29 26 25 22 16 21 23 24 22 19 12 22 17 16 14 14 13 14 14 13 12 13 13 13
24 20 22 27 25 15 15 11 12 16 17 11 6 2 6 14 29 37 41 28 30 15 4 23 25 19 27 23 24 27 24 24 31 31 30 32 31 31 26 18 19 19 24 20 21 16 18 17 16 14 12 12 12 12
41 32 16 10 9 14 19 28 20 15 13 7 8 11 14 14 28 29 24 22 27 20 14 14 13 16 19 20 19 21 25 23 25 21 25 23 26 29 28 27 25 20 25 21 22 18 17 14 16 12 10 10 9 8
25 15 12 13 9 20 29 29 31 26 29 23 16 12 10 11 14 45 37 32 25 15 25 20 24 16 12 14 17 27 33 21 19 7 14 21 24 27 30 28 25 22 25 26 23 22 18 20 17 17 16 15 14 14
21 13 8 5 3 5 8 13 16 9 7 6 6 5 2 7 14 25 41 37 31 28 26 22 23 24 18 15 18 14 18 21 21 10 3 11 8 17 17 28 27 23 28 27 25 22 27 22 17 21 20 19 18 20
21 18 9 5 2 2 9 11 8 8 11 8 9 15 11 8 10 21 32 35 34 29 30 30 30 31 28 26 24 29 31 32 31 27 24 24 14 8 13 18 15 14 23 22 25 14 17 19 21 14 24 21 20 19
Wind_Direction_850mb
295 296 297 298 299 300 301 303 304 306 307 307 307 307 307 307 306 303 288 283 274 274 278 275 278 281 280 271 270 288 317 291 250 250 258 272 271 274 279 286 310 302 304 286 261 269 269 36 305 283 261 273 294 290
293 294 295 297 298 298 300 303 304 305 305 305 305 304 305 307 309 305 295 297 284 269 270 279 275 269 265 267 281 285 273 283 302 320 323 7 319 311 297 286 289 276 275 297 281 287 312 309 301 312 319 315 316 328
291 293 294 296 296 297 301 303 304 305 305 305 306 305 305 303 303 297 291 292 294 284 288 272 271 275 274 252 247 247 258 256 271 267 291 292 265 290 283 283 302 306 304 304 314 303 302 306 309 326 324 320 305 313
292 292 294 294 298 299 300 304 303 305 303 304 305 304 303 304 301 295 290 281 271 275 282 288 281 272 288 264 268 243 241 250 263 265 258 251 268 274 271 287 292 293 296 290 290 297 312 315 317 318 312 319 312 317
296 296 292 289 290 291 297 299 301 302 304 307 306 304 302 301 305 305 290 277 258 247 282 293 295 292 285 275 251 252 254 239 243 240 234 241 247 259 261 267 266 275 291 297 297 308 304 301 309 310 309 310 303 318
291 294 297 296 294 292 294 298 301 300 304 304 304 301 304 305 305 319 314 27 184 303 267 281 287 283 279 271 258 259 237 228 227 226 229 240 237 232 267 266 269 284 298 303 305 308 307 307 312 325 319 312 306 311
288 286 285 284 284 285 289 297 298 300 299 300 300 300 298 296 286 266 253 274 329 328 295 288 283 284 321 259 252 241 233 225 228 244 230 230 226 224 261 265 289 297 307 300 298 306 306 306 310 310 311 304 314 312
288 289 290 290 291 292 294 295 295 298 299 300 301 302 299 291 281 272 276 293 292 267 266 261 279 286 301 320 303 276 207 226 217 215 202 211 233 205 255 281 315 313 310 305 316 316 302 308 318 329 330 326 323 320
289 287 286 290 292 294 298 300 297 298 301 303 307 302 296 275 254 274 262 258 246 219 262 276 267 290 205 297 278 312 308 284 238 208 233 229 204 228 265 325 314 309 303 304 313 317 338 340 339 333 331 331 329 327
291 294 292 290 290 288 295 298 299 299 300 310 308 283 258 213 352 317 268 224 206 206 231 249 250 261 282 300 307 332 286 230 254 241 222 161 220 158 290 311 302 296 326 328 324 340 346 337 336 338 337 334 333 331
276 279 283 286 289 290 287 291 297 304 314 309 286 275 315 306 302 250 244 211 180 213 219 249 243 256 269 283 283 248 286 277 266 43 350 38 167 338 307 309 316 309 299 312 353 348 348 343 343 347 353 353 350 345
285 282 280 286 286 285 284 288 297 303 291 288 296 301 299 276 236 246 242 234 199 286 325 345 312 276 271 236 253 252 270 285 284 358 207 180 238 355 336 322 286 281 285 44 12 359 2 8 14 17 17 16 15 13
281 282 280 278 278 280 281 286 291 295 306 300 250 241 232 244 238 234 234 220 350 335 311 321 302 260 231 265 246 259 271 259 332 267 133 44 353 340 339 307 299 309 100 58 24 14 21 25 19 17 19 24 31 33
281 279 276 275 276 282 284 283 287 299 301 253 240 240 246 219 231 346 335 324 246 247 280 308 327 300 272 226 262 243 279 324 260 344 31 348 344 352 350 327 316 20 78 58 35 17 17 15 20 24 26 26 32 36
278 277 273 272 276 276 270 270 273 266 255 267 262 243 236 264 295 261 304 295 318 272 293 318 298 252 283 261 279 289 276 251 43 29 360 349 341 344 341 344 9 20 44 51 25 18 20 22 29 34 34 33 37 41
278 279 287 292 274 253 261 264 260 241 240 248 249 265 286 293 292 340 321 296 308 314 324 291 272 257 249 272 305 324 319 33 2 24 4 351 352 349 354 26 24 24 27 43 57 18 20 28 27 27 25 30 34 38
268 267 276 288 266 258 258 245 254 221 220 234 246 253 272 286 289 299 287 292 300 302 311 311 287 9 275 42 50 198 292 311 18 21 7 350 344 348 17 15 21 22 20 29 24 356 332 360 48 21 19 20 29 36
262 270 276 279 256 254 248 229 241 240 237 249 264 272 278 277 274 285 287 289 291 287 295 294 314 292 293 318 327 73 49 353 60 37 10 356 4 13 16 9 4 18 23 18 30 32 36 36 33 25 34 28 29 31
263 270 293 309 209 237 248 235 220 255 243 259 263 266 266 268 269 270 271 273 274 276 272 263 251 259 252 334 2 340 0 7 15 23 10 354 351 2 1 343 2 30 40 49 46 50 49 49 45 41 40 36 39 33
260 262 268 271 231 238 246 252 229 255 268 276 277 271 263 259 259 261 260 263 261 263 264 247 253 263 281 295 295 321 347 343 342 349 351 334 341 339 340 336 16 333 57 72 45 35 56 56 51 48 52 54 53 50
266 264 257 244 236 232 255 255 247 253 279 277 274 274 277 260 255 250 253 253 247 251 255 250 253 262 266 273 286 304 310 307 316 312 307 311 314 313 311 292 358 20 53 63 64 65 60 59 57 59 61 57 54 52
257 263 248 224 221 233 237 235 250 270 272 270 279 277 268 260 256 252 255 251 252 245 247 252 254 259 261 261 266 272 279 290 295 291 293 303 304 307 311 299 336 68 58 61 65 66 69 70 66 63 63 62 61 62
262 218 232 232 237 238 256 246 243 246 242 267 282 279 271 267 264 262 258 254 252 251 250 250 251 250 256 264 270 269 265 268 271 272 265 278 266 279 294 196 327 80 82 79 80 88 79 72 67 69 69 67 66 62
222 251 229 230 214 254 252 243 237 246 276 281 283 279 276 276 271 260 258 256 253 254 249 248 245 246 248 246 248 251 252 246 244 242 247 227 235 248 257 234 160 94 93 99 99 95 89 78 76 72 72 72 70 68
238 236 221 245 243 237 255 261 231 238 240 232 239 256 272 291 268 245 241 245 247 245 245 243 239 233 234 240 239 235 228 226 217 216 217 207 224 238 225 214 174 122 131 115 116 107 104 93 86 84 82 78 75 73
227 229 207 224 232 228 236 257 239 230 252 232 224 232 262 252 247 261 262 254 236 245 231 213 223 226 222 223 227 222 203 199 203 198 199 200 207 219 211 196 187 156 164 142 136 127 121 111 101 97 90 82 84 80
246 253 234 231 246 285 272 257 268 275 265 259 235 196 230 233 227 227 218 165 241 231 230 238 209 195 202 200 203 195 183 185 194 186 186 193 201 206 201 197 216 177 172 161 154 147 139 135 124 116 104 92 85 83
233 257 228 230 230 227 249 261 264 267 250 234 252 249 234 263 327 336 17 9 9 299 291 137 155 161 175 177 182 176 176 183 193 191 203 190 192 202 203 202 233 176 172 173 166 163 156 151 142 131 117 109 102 94
235 242 254 243 235 227 231 230 238 234 253 295 295 29 351 337 6 359 354 14 24 14 185 120 136 158 148 160 173 177 173 193 194 193 195 189 185 193 194 209 194 176 181 178 175 166 173 168 159 149 136 122 116 109
266 265 252 231 210 217 223 206 247 257 264 322 342 343 339 6 4 16 29 50 25 46 69 113 126 153 150 163 174 171 191 198 191 190 208 199 198 209 212 183 184 184 183 182 184 193 181 170 171 173 177 165 152 147
276 269 236 221 232 241 237 229 224 243 253 272 278 282 302 316 346 37 54 59 43 76 63 76 95 108 129 107 89 99 89 111 117 139 214 209 195 201 193 191 198 195 190 189 187 191 193 194 202 206 207 208 210 217
282 236 238 245 261 350 126 129 137 121 123 112 89 118 67 37 28 35 56 67 63 57 55 63 60 63 91 79 79 109 90 99 86 108 127 197 195 212 202 197 192 198 203 197 196 193 186 201 230 233 234 239 244 234
299 305 326 318 165 131 111 104 88 86 69 72 73 75 57 60 41 9 48 56 60 62 69 74 75 77 82 98 96 82 80 86 96 103 96 103 126 145 145 153 175 190 177 187 194 217 201 224 239 257 242 251 272 277